Location: Sark
(49.4440°N, 2.3620°W)
Time: 16:02:05
(UTC+01:00)

N. Korean satellite - Visible Passes

Search period start: 23 October 2017 00:00
Search period end: 01 November 2017 23:00
Orbit: 459 x 517 km, 97.2° (Epoch: 22 October)

Date Brightness Start Highest point End Pass type
(mag) Time Alt. Az. Time Alt. Az. Time Alt. Az.
23 Oct 9.9 07:07:38 10° NE 07:09:54 16° E 07:12:10 10° SE visible
23 Oct 7.3 19:20:30 10° S 19:23:56 55° W 19:27:21 10° NNW visible
24 Oct 6.4 18:57:05 10° SSE 19:00:34 75° ENE 19:04:01 10° N visible
25 Oct 6.9 18:34:00 10° SE 18:37:15 39° ENE 18:40:31 10° N visible
25 Oct 9.7 20:08:44 10° SW 20:10:59 16° W 20:13:14 10° NW visible
26 Oct 8.6 19:44:24 10° SSW 19:47:27 28° W 19:50:31 10° NW visible
27 Oct 9.8 07:07:40 10° NE 07:10:00 16° E 07:12:20 10° SE visible
27 Oct 7.3 19:20:35 10° S 19:24:00 54° W 19:27:25 10° NNW visible
28 Oct 6.3 18:57:10 10° SSE 19:00:36 76° ENE 19:04:04 10° N visible
29 Oct 6.9 17:34:03 10° SE 17:37:17 39° ENE 17:40:33 10° N visible
29 Oct 9.6 19:08:49 10° SW 19:11:01 16° W 19:13:14 10° NW visible
30 Oct 8.6 18:44:27 10° SSW 18:47:29 28° W 18:50:31 10° NW visible
31 Oct 9.8 06:07:38 10° NE 06:10:02 17° E 06:12:26 10° SE visible
31 Oct 7.3 18:20:37 10° S 18:24:00 54° W 18:27:25 10° NNW visible
01 Nov 6.3 17:57:10 10° SSE 18:00:36 77° ENE 18:04:04 10° N visible
